Huvudsida
METAR-TAF:

METAR-TAF

Flygplatser :

Rieti, Italien

latitud: 42-25N, longitud: 012-51E, höjd: 389 m

Aktuellt väderrapport

Denna rapport gjordes för 12 timmar och 16 minuter sedan, klockan 15:50 UTC
Vind 3 kt varierande vindriktning
Temperatur 12°C
Fuktighet 76%
Tryck 1021 hPa
Sikt 10 km eller mer
Få moln på en höjd av 3500 ft

METAR: LIQN 061550Z VRB03KT 9999 FEW035 12/08 Q1021

Tid: 05:06 (04:06 UTC)


TAF: saknas

Aktuella väderrapporter och prognoser från 4000 flygplatser (METAR- och TAF-rapporter).

De tillgängliga stationerna syns som gula och röda prickar på kartan.

För musen över prickarna för att se namnen på stationerna.

Klicka sedan för att få väderrapporter och prognoser.

För att ändra kartan: Klicka på de gröna knapparna med ett svart kors på för att zooma in; den gröna knappen med ett streck på för att zooma ut; eller på de gröna pilarna för angränsande kartor.


METAR-TAF: